Weather History for Custer, SD

Change the Weather History Date:

Saturday, October 29, 2011

  Actual Average Record
Temperature  
Mean Temperature 41 °F 39 °F  
Max Temperature 55 °F 50 °F 72 °F (1990)
Min Temperature 26 °F 28 °F 4 °F (1991)
Degree Days  
Heating Degree Days 24 26  
Month to date heating degree days 566 640  
Since 1 July heating degree days 918 1126  
Cooling Degree Days 0 0  
Month to date cooling degree days 0 0  
Year to date cooling degree days 267 177  
Moisture  
Dew Point 15 °F    
Average Humidity 37    
Maximum Humidity 59    
Minimum Humidity 14    
Precipitation  
Precipitation T in 0.02 in 0.72 in (1961)
Month to date precipitation 0.36 1.43  
Year to date precipitation 20.02 17.92  
Sea Level Pressure  
Sea Level Pressure 29.90 in    
Wind  
Wind Speed 9 mph (WNW)    
Max Wind Speed 22 mph    
Max Gust Speed 36 mph    
Visibility 10 miles    
Events Rain    
T = Trace of Precipitation, MM = Missing Value Source: NWS Daily Summary

Daily Weather History Graph

Daily Weather History Graph

Search for Another Location

Airport:

Trip Planner

Search our weather history database for the weather conditions in past years. The results will help you decide how hot, cold, wet, or windy it might be!

Date:

Astronomy

Oct. 29, 2011 Rise Set
Actual Time 7:26 AM MDT 5:49 PM MDT
Civil Twilight 6:56 AM MDT 6:19 PM MDT
Nautical Twilight 6:22 AM MDT 6:52 PM MDT
Astronomical Twilight 5:49 AM MDT 7:26 PM MDT
Moon 10:56 AM MDT (10/29) 8:09 PM MDT (10/29)
Length of Visible Light 11h 22m
Length of Day
10h 23m
Waxing Crescent, 12% of the Moon is Illuminated
Oct 29
Waxing Crescent
Nov 2
First Quarter
Nov 10
Full
Nov 18
Last Quarter
Nov 24
New

Hourly Weather History & Observations

Time (MDT) Temp. Windchill Dew Point Humidity Pressure Visibility Wind Dir Wind Speed Gust Speed Precip Events Conditions
12:53 AM 32.0 °F 26.4 °F 14.0 °F 48% 29.97 in 10.0 mi West 5.8 mph - N/A   Clear
1:53 AM 34.0 °F 28.8 °F 12.0 °F 40% 29.92 in 10.0 mi West 5.8 mph - N/A   Clear
2:53 AM 35.1 °F 29.3 °F 12.0 °F 39% 29.89 in 10.0 mi WSW 6.9 mph - N/A   Clear
3:53 AM 36.0 °F 29.6 °F 12.0 °F 37% 29.86 in 10.0 mi WSW 8.1 mph - N/A   Clear
4:53 AM 36.0 °F 29.6 °F 10.9 °F 36% 29.86 in 10.0 mi WSW 8.1 mph - N/A   Clear
5:53 AM 34.0 °F 27.2 °F 10.9 °F 38% 29.87 in 10.0 mi West 8.1 mph - N/A   Clear
6:53 AM 37.0 °F 31.0 °F 9.0 °F 31% 29.86 in 10.0 mi West 8.1 mph - N/A   Clear
7:53 AM 41.0 °F 36.4 °F 6.1 °F 24% 29.84 in 10.0 mi WNW 6.9 mph - N/A   Partly Cloudy
8:53 AM 44.1 °F 40.8 °F 5.0 °F 20% 29.85 in 10.0 mi WNW 5.8 mph - N/A   Mostly Cloudy
9:53 AM 46.9 °F - 7.0 °F 20% 29.83 in 10.0 mi WNW 5.8 mph - N/A   Overcast
10:53 AM 51.1 °F - 5.0 °F 15% 29.82 in 10.0 mi WNW 6.9 mph - N/A   Scattered Clouds
11:53 AM 54.0 °F - 12.0 °F 19% 29.81 in 10.0 mi North 12.7 mph 21.9 mph N/A   Clear
12:53 PM 53.1 °F - 15.1 °F 22% 29.81 in 10.0 mi NNW 15.0 mph 20.7 mph N/A   Mostly Cloudy
1:53 PM 53.1 °F - 19.0 °F 26% 29.80 in 10.0 mi NW 12.7 mph 23.0 mph N/A   Mostly Cloudy
2:53 PM 51.1 °F - 21.9 °F 32% 29.83 in 10.0 mi NNW 11.5 mph 25.3 mph N/A   Mostly Cloudy
3:53 PM 46.9 °F - 23.0 °F 39% 29.87 in 10.0 mi NNW 9.2 mph 19.6 mph N/A   Scattered Clouds
4:53 PM 39.9 °F 30.8 °F 28.9 °F 65% 29.97 in 10.0 mi NNW 18.4 mph 29.9 mph 0.00 in Rain Light Rain
5:53 PM 37.0 °F 32.4 °F 28.0 °F 70% 29.98 in 10.0 mi Variable 5.8 mph - 0.00 in   Mostly Cloudy
6:53 PM 37.9 °F 30.0 °F 21.0 °F 51% 29.99 in 10.0 mi NNW 12.7 mph 25.3 mph N/A   Overcast
7:53 PM 36.0 °F 27.5 °F 23.0 °F 59% 29.99 in 10.0 mi NNW 12.7 mph 23.0 mph N/A   Clear
8:53 PM 35.1 °F 26.4 °F 19.9 °F 54% 30.00 in 10.0 mi NNW 12.7 mph 28.8 mph N/A   Clear
9:53 PM 34.0 °F 26.0 °F 19.0 °F 54% 30.01 in 10.0 mi NNW 10.4 mph 16.1 mph N/A   Clear
10:53 PM 33.1 °F 24.9 °F 17.1 °F 52% 30.01 in 10.0 mi NNW 10.4 mph 19.6 mph N/A   Clear
11:53 PM 28.9 °F 22.8 °F 16.0 °F 58% 30.03 in 10.0 mi West 5.8 mph - N/A   Clear